Regional Weather Roundup
Issued by NWS

Home | Current Version | Previous Version | Text Only | Print | Product List | Glossary On
Versions: 1 2 3 4 5 6 7 8 9 10 11 12 13 14 15 16 17 18 19 20 21 22 23 24 25 26 27 28 29 30 31 32 33 34 35 36 37 38 39 40 41 42 43 44 45 46 47 48 49 50
000
ASUS43 KTOP 130408
RWRKS

WEATHER ROUNDUP FOR KANSAS
NATIONAL WEATHER SERVICE GOODLAND KS
1100 PM CDT WED AUG 12 2020

NOTE:  "FAIR" INDICATES FEW OR NO CLOUDS BELOW 12,000 FEET WITH NO
SIGNIFICANT WEATHER AND/OR OBSTRUCTIONS TO VISIBILITY.

KSZ001>006-013>018-027>032-041>047-130500-
NORTHWEST KANSAS

CITY           SKY/WX    TMP DP  RH WIND       PRES   REMARKS
GOODLAND       CLEAR     71  67  87 SE10      30.01R
HAYS           MOCLDY    75  71  87 SE7       29.96S
HILL CITY      CLEAR     74  69  85 SE3       29.97R
RUSSELL        CLOUDY    78  71  79 SE8       29.95R
$$

KSZ061>065-074>080-084>089-130500-
SOUTHWEST KANSAS

CITY           SKY/WX    TMP DP  RH WIND       PRES   REMARKS
DODGE CITY     PTCLDY    73  71  93 E6        29.97R
ELKHART        CLEAR     75  72  89 E9        30.00R
GARDEN CITY    CLEAR     73  70  90 E15       29.98R
GREAT BEND     MOCLDY    76  73  91 E5        29.96R
LIBERAL        CLEAR     76  70  82 E12       29.97R
PRATT          CLEAR     77  75  94 E8        29.95S
$$

KSZ066>073-081>083-090>101-130500-
SOUTHEAST KANSAS

CITY           SKY/WX    TMP DP  RH WIND       PRES   REMARKS
CHANUTE        PTCLDY    79  69  71 SE5       29.99R
COFFEYVILLE    CLEAR     78  72  81 S3        29.96R
HUTCHINSON     PTCLDY    79  71  76 SE12      29.94S
MEDICINE LODGE   N/A     79  74  84 E8        29.91R
NEWTON         PTCLDY    77  71  82 SE12      29.97S
PARSONS        PTCLDY    76  72  87 CALM      29.99R
WICHITA INTL   MOCLDY    81  71  71 E14       29.94R
WICHITA JABRA  MOCLDY    78  72  81 E7        29.96R
WICHITA MCCONL PTCLDY    80  69  70 SE10      29.95R
WINFIELD       MOCLDY    80  73  79 E10       29.94S
$$

KSZ007>012-019>026-033>040-048>060-102>105-130500-
NORTHEAST KANSAS

CITY           SKY/WX    TMP DP  RH WIND       PRES   REMARKS
CONCORDIA      CLEAR     75  71  87 E6        29.96R
EMPORIA        LGT RAIN  76  72  87 E8        29.98S
LAWRENCE       PTCLDY    76  73  91 SE8       29.97S
MANHATTAN      CLEAR     75  71  87 CALM      29.95S
MARYSVILLE     PTCLDY    73  73 100 SE5       29.98R
OLATHE IND     MOCLDY    78  70  76 E8        30.00S
OLATHE EXE     CLOUDY    78  71  79 E5        30.01R
SALINA         MOCLDY    80  70  71 SE9       29.95R
TOPEKA BILLARD CLEAR     76  70  82 SE7       29.96S
TOPEKA FORBES  CLEAR     77  72  84 SE8       29.97S
$$



USA.gov is the U.S. government's official web portal to all federal, state and local government web resources and services.